Probability
0 0 1 2 3 3 1 0 0 0 0 0 0 1 2 3 3 3 1 0 0 0 1 2 3 3 2 1 3 7 7 5 5 5 6 6 5 5 3 1 1 1 1
0 0 0 1 3 3 2 1 0 0 0 0 0 1 2 3 3 3 2 1 1 0 1 2 2 3 3 1 2 4 6 6 7 8 9 9 8 6 4 2 1 1 0
0 0 0 1 2 2 2 1 0 0 0 0 0 1 2 3 3 3 3 3 2 1 0 1 2 3 3 1 1 2 4 6 8 8 9 10 11 9 6 3 1 0 0
0 0 0 0 1 1 1 0 0 0 0 0 0 1 2 3 3 3 3 3 3 1 1 0 1 2 2 2 1 1 3 5 6 7 7 9 11 10 8 4 1 0 0
0 0 0 0 0 0 0 0 0 0 0 0 0 0 1 2 3 3 3 3 3 3 3 2 1 0 1 2 1 1 3 5 6 6 5 7 9 9 7 6 3 1 0
0 0 0 1 0 0 0 0 0 0 0 0 0 0 0 1 3 3 3 3 3 4 5 4 2 1 0 1 2 2 3 5 7 7 5 5 5 6 7 7 6 2 0
0 0 0 0 0 0 0 0 0 0 0 0 0 0 0 1 2 3 3 3 3 4 5 5 5 3 1 0 1 2 3 4 6 7 6 5 5 5 6 7 6 3 1
0 0 0 0 0 0 1 0 0 0 0 0 0 0 0 0 1 1 2 3 3 3 4 4 5 5 3 2 1 1 1 1 3 5 6 6 6 5 4 5 4 3 2
0 0 0 0 0 0 0 0 0 0 0 0 0 0 0 0 0 0 1 1 2 2 2 2 3 5 4 4 3 1 0 0 1 2 4 6 5 3 3 4 5 4 3
0 0 0 0 0 0 0 0 0 0 0 0 0 0 0 0 0 0 0 0 1 1 1 1 3 4 4 5 3 1 0 0 0 0 2 4 3 2 3 5 6 5 5
0 0 0 0 0 0 0 0 0 0 0 0 0 0 0 0 0 0 0 0 0 0 0 1 2 2 3 4 3 1 0 0 0 0 1 2 2 2 2 4 6 6 6
0 0 0 0 0 0 0 0 0 0 0 0 0 0 0 0 0 0 0 0 0 0 0 1 2 2 2 3 2 0 0 0 0 0 0 1 1 1 2 3 6 7 8
0 0 0 0 0 0 0 0 0 0 0 0 0 0 0 0 0 0 0 0 0 0 0 0 1 2 2 1 1 0 0 0 0 0 0 0 0 0 1 2 4 7 8
0 0 0 0 0 0 0 0 0 0 0 0 0 0 0 0 0 0 0 0 0 0 0 0 0 0 0 0 0 0 0 0 0 0 0 0 0 0 0 0 2 4 5
0 0 0 0 0 0 0 0 0 0 0 0 0 0 0 0 0 0 0 0 0 0 0 0 0 0 0 0 0 0 0 0 0 0 0 0 0 0 0 0 0 1 1
0 0 0 0 0 0 0 0 0 0 0 0 0 0 0 0 0 0 0 0 0 0 0 0 0 0 0 0 0 0 0 0 0 0 0 0 0 0 0 0 0 0 0
0 0 0 0 0 0 0 0 0 0 0 0 0 0 0 0 0 0 0 0 0 0 0 0 0 0 0 0 0 0 0 0 0 0 0 0 0 0 0 0 0 0 0
0 0 0 0 0 0 0 0 0 0 0 0 0 0 0 0 0 0 0 0 0 0 0 0 0 0 0 0 0 0 0 0 0 0 0 0 0 0 0 0 0 0 0
0 0 0 0 0 0 0 0 0 0 0 0 0 0 0 0 0 0 0 0 0 0 0 0 0 0 0 0 0 0 0 0 0 0 0 0 0 0 0 0 0 0 0
0 0 0 0 0 0 0 0 0 0 0 0 0 0 0 0 0 0 0 0 0 0 0 0 0 0 0 0 0 0 0 0 0 0 0 0 0 0 0 0 0 0 0
0 0 0 0 0 0 0 0 0 0 0 0 0 0 0 0 0 0 0 0 0 0 0 0 0 0 0 0 0 0 0 0 0 0 0 0 0 0 0 0 0 0 0
0 0 0 0 0 0 0 0 0 0 0 0 0 0 0 0 0 0 0 0 0 0 0 0 0 0 0 0 0 0 0 0 0 0 0 0 0 0 0 0 0 0 0
0 0 0 0 0 0 0 0 0 0 0 0 0 0 0 0 0 0 0 0 0 0 0 0 0 0 0 0 0 0 0 0 0 0 0 0 0 0 0 0 0 0 0
0 0 0 0 0 0 0 0 0 0 0 0 0 0 0 0 0 0 0 0 0 0 0 0 0 0 0 0 0 0 0 0 0 0 0 0 0 0 0 0 0 0 0
0 0 0 0 0 0 0 0 0 0 0 0 0 0 0 0 0 0 0 0 0 0 0 0 0 0 0 0 0 0 0 0 0 0 0 0 0 0 0 0 0 0 0
0 0 0 0 0 0 0 0 0 0 0 0 0 0 0 0 0 0 0 0 0 0 0 0 0 0 0 0 0 0 0 0 0 0 0 0 0 0 0 0 0 0 0
Wind_Speed
4 4 3 3 4 3 3 3 3 3 3 3 2 2 2 2 2 2 1 3 4 4 3 3 2 1 1 1 2 3 3 4 5 5 5 5 5 6 6 5 6 6 6
4 4 4 4 4 4 4 3 4 4 3 3 3 3 3 2 2 3 2 1 2 4 4 3 3 3 2 3 2 2 2 3 4 5 5 5 6 6 6 6 6 6 6
4 4 3 3 3 4 4 3 4 3 3 3 4 4 3 3 3 3 3 2 2 2 3 3 3 3 3 2 2 2 3 2 3 4 5 5 6 6 6 6 6 6 6
5 4 3 3 4 3 3 3 3 3 3 3 4 3 3 3 3 3 3 3 2 2 2 3 3 3 4 3 3 3 3 3 3 3 4 5 5 6 6 6 6 6 5
6 4 3 3 4 3 3 3 3 3 4 4 4 4 4 3 3 3 3 3 3 3 2 2 2 3 3 4 4 4 4 4 4 4 5 4 5 6 7 7 7 6 6
6 5 3 4 4 3 3 3 4 3 4 4 4 4 4 4 4 3 4 3 3 3 3 3 3 2 3 4 4 4 5 5 5 5 6 6 6 5 8 8 7 7 7
7 6 4 4 4 4 4 4 4 4 3 3 3 3 4 4 4 3 3 3 2 3 3 3 3 3 2 3 4 5 5 6 6 6 7 7 8 7 6 8 8 8 7
6 5 5 4 4 4 4 4 4 3 3 2 3 3 3 3 3 3 3 3 3 3 3 3 4 3 3 2 2 4 5 6 6 7 7 8 8 9 8 8 9 9 8
6 6 6 5 5 4 4 4 4 5 4 3 2 3 3 3 2 3 4 3 3 3 3 4 4 4 4 3 3 3 5 6 7 8 8 8 8 9 10 9 9 9 9
6 6 6 6 5 4 4 5 4 5 5 4 3 3 4 4 4 3 3 3 4 4 5 4 4 5 5 4 3 4 4 5 7 8 9 9 9 9 10 9 10 10 9
5 6 6 6 5 4 5 5 5 5 4 5 4 3 4 4 6 5 5 5 4 4 4 5 5 5 5 4 4 3 4 6 7 8 9 9 9 9 9 9 9 10 10
5 6 6 6 6 5 5 6 5 6 5 6 5 4 4 4 4 5 6 6 6 5 5 5 5 5 4 4 4 3 4 6 8 9 9 10 9 10 9 10 9 9 9
5 6 6 6 6 6 6 6 6 6 6 6 6 5 5 5 5 6 6 6 6 5 5 5 4 4 5 4 3 4 5 6 8 8 9 10 9 9 9 9 9 9 9
5 7 7 7 7 7 7 6 6 6 6 6 7 7 5 5 5 6 6 6 6 6 6 6 4 5 4 4 4 6 5 6 7 8 9 9 8 8 8 9 8 8 8
6 7 7 7 7 7 7 7 6 7 7 7 7 7 6 5 5 6 6 6 7 7 7 6 4 4 4 5 5 5 6 6 7 8 8 8 7 7 7 8 8 7 7
7 7 7 7 7 7 8 7 7 7 7 7 6 7 7 5 5 5 5 6 7 8 8 5 5 5 6 5 6 7 7 8 8 8 8 7 7 8 8 8 8 8 8
7 7 7 7 7 8 8 7 7 8 8 8 8 8 8 8 6 5 6 6 7 7 9 7 6 6 8 8 6 6 6 6 6 7 8 8 8 8 8 9 9 9 9
7 7 7 7 7 8 8 8 8 8 8 9 9 9 9 7 8 7 6 7 7 8 8 9 7 6 8 8 7 7 6 5 6 6 8 9 9 9 8 8 9 9 10
7 7 8 8 8 8 8 8 9 9 9 9 10 10 10 9 9 7 8 7 7 7 7 8 7 6 6 6 7 6 7 6 6 5 7 9 9 9 9 9 8 9 10
8 8 8 8 8 8 9 9 9 9 10 10 10 10 10 10 10 10 8 9 7 7 7 7 7 6 6 6 6 5 5 5 5 5 6 6 7 8 9 9 9 9 9
8 8 8 8 8 8 8 9 10 10 10 11 10 10 10 11 12 11 9 9 8 7 7 7 7 6 6 6 6 5 6 5 5 5 5 5 5 5 6 8 9 9 9
8 8 8 9 9 8 11 15 13 10 10 10 10 10 10 11 12 14 15 14 12 10 9 8 7 8 8 7 6 6 5 5 6 4 5 5 5 6 6 6 6 8 9
8 9 9 9 9 11 14 15 16 12 10 10 10 10 9 9 12 10 12 14 14 15 15 11 10 10 9 8 7 8 7 7 7 4 4 6 5 6 5 5 7 8 9
8 8 9 9 10 11 14 15 16 12 10 10 10 11 11 11 10 11 10 10 11 11 12 11 11 11 9 8 8 8 7 7 6 6 6 6 6 6 6 5 7 8 9
8 8 9 9 10 11 14 15 15 9 8 10 10 10 11 11 13 14 11 10 11 10 11 13 14 13 13 13 10 6 6 6 7 6 5 5 5 5 5 6 6 8 9
8 8 9 9 10 10 13 14 15 7 8 9 9 9 12 13 14 14 10 10 10 10 9 8 10 11 10 10 12 9 7 7 6 6 5 5 5 4 4 4 5 5 6
Wind_Direction
358 352 351 348 347 345 344 340 331 330 323 317 308 306 311 314 313 313 349 21 344 334 318 309 310 285 247 221 196 183 176 183 182 174 172 170 171 171 171 171 166 158 153
355 348 345 343 345 342 339 331 334 322 312 306 299 294 289 291 288 291 297 330 345 326 317 307 299 298 264 239 213 194 190 194 194 188 180 181 179 178 174 174 175 169 164
345 340 336 336 339 335 333 332 330 324 310 301 298 290 285 280 271 276 281 285 286 306 314 305 300 297 292 264 246 239 221 213 205 203 196 186 185 186 183 176 174 175 172
345 338 332 337 336 330 327 327 327 326 312 301 298 293 285 277 269 270 270 275 279 281 305 322 311 299 292 281 265 265 255 238 225 219 210 196 191 190 188 182 175 175 172
347 335 331 336 335 326 322 321 320 316 307 300 292 292 286 275 268 264 262 269 273 277 282 305 301 298 291 284 270 262 261 254 242 231 221 202 203 203 197 189 181 178 174
351 343 331 336 334 324 323 319 314 315 302 301 293 288 280 272 265 260 260 261 265 274 279 281 276 268 276 282 279 267 259 257 253 240 228 216 211 211 205 194 186 185 185
354 349 342 334 331 325 321 319 314 311 314 314 299 289 273 258 257 256 259 259 258 267 280 284 282 281 267 268 274 278 271 261 255 248 234 222 217 211 210 202 197 197 198
352 347 345 336 329 321 317 320 314 306 307 314 302 289 275 253 235 252 261 261 264 272 281 287 285 280 277 270 279 278 277 272 262 252 243 228 220 214 216 211 200 200 201
350 347 340 334 328 324 314 316 310 305 296 294 285 285 276 265 293 244 247 251 261 271 277 278 278 280 275 273 272 264 275 273 266 256 248 239 230 222 219 219 207 205 206
347 344 339 332 324 320 316 311 308 300 290 282 283 276 283 292 272 262 241 252 268 271 274 278 278 274 270 265 266 284 284 280 268 260 253 248 238 231 226 229 218 215 214
343 342 337 329 324 318 316 311 303 300 292 283 280 281 277 276 269 261 262 261 265 267 273 273 271 267 267 263 255 261 275 276 270 264 257 252 246 239 234 238 233 224 221
332 336 333 328 321 315 312 307 301 296 289 284 280 270 268 268 268 271 270 269 271 273 273 268 265 267 269 267 267 290 280 276 274 267 259 253 249 246 242 241 240 229 225
323 327 326 320 318 313 309 305 296 290 286 283 280 277 272 269 270 270 271 271 274 277 270 261 259 265 267 266 269 281 270 271 272 269 264 259 256 252 248 247 244 239 230
313 315 314 313 312 311 306 302 295 290 285 282 280 277 275 274 271 264 266 272 270 267 261 261 264 262 264 268 280 284 269 269 273 272 267 265 264 259 255 248 248 249 244
311 310 309 309 308 310 306 301 293 292 287 281 279 276 272 271 271 271 265 263 263 267 264 265 263 260 266 267 274 269 270 273 274 272 271 269 264 258 254 249 247 245 248
311 308 305 305 306 307 305 300 295 293 290 284 280 276 273 271 267 268 269 266 261 262 266 264 268 267 269 271 272 270 268 272 263 261 263 264 261 254 247 246 245 244 242
307 306 304 302 303 302 302 296 293 294 290 287 283 279 277 275 271 267 265 265 261 256 261 268 267 264 262 264 266 265 265 261 253 248 253 258 258 257 248 242 239 238 238
305 304 303 300 300 300 301 298 293 291 288 287 285 281 277 274 269 267 264 263 265 262 258 262 263 261 259 258 261 261 264 263 257 249 249 252 253 253 250 240 236 233 233
303 303 301 301 300 298 297 295 289 286 284 283 281 280 277 274 271 268 266 264 265 266 264 258 259 259 260 253 257 260 262 260 260 253 246 244 246 249 249 243 238 236 233
300 301 301 299 298 296 293 292 288 285 282 279 278 276 273 271 269 267 264 261 260 262 261 256 254 254 254 252 249 250 256 257 259 260 253 250 245 244 243 240 236 235 234
299 300 298 297 296 294 290 292 289 285 283 281 278 275 272 272 272 268 262 259 256 254 256 255 252 252 249 242 242 246 253 262 266 260 258 253 245 239 237 237 237 231 230
299 298 296 296 295 293 297 297 295 289 286 282 281 280 277 273 273 272 268 265 260 255 254 255 253 250 253 252 248 242 244 252 260 249 253 260 254 248 247 243 239 237 233
297 296 295 294 294 295 298 299 300 296 289 284 282 281 278 275 276 271 270 266 261 257 253 255 256 253 252 250 250 249 246 251 257 258 262 263 258 254 253 249 239 236 236
295 294 295 295 295 296 300 301 304 299 290 284 281 278 277 277 274 273 270 265 260 255 251 249 253 255 255 252 248 251 258 263 266 254 248 257 257 258 259 253 240 236 238
292 294 295 295 295 298 301 303 305 297 291 289 284 279 278 276 276 274 269 265 263 261 258 252 254 258 258 258 253 247 241 242 252 251 245 247 254 260 262 257 246 236 237
289 294 294 294 294 295 301 304 306 297 294 291 288 283 280 279 277 273 266 262 261 261 261 258 251 253 252 249 244 238 237 240 250 255 242 239 244 249 259 255 252 243 234